カタログに戻る

STARLINK-32407

運用中通信VLEO
NORAD 62172·PAYLOAD·🇺🇸 United States

打ち上げ Nov 30, 2024 から Vandenberg Space Force Base

Loading…

次のパス (今後24時間)

TLE

最新Source: CelesTrak SupGP

元期: Sep 14, 2026, 21:12 UTC

1 62172C 24225K   26257.88381944  .00028747  00000+0  24096-2 0  2577
2 62172  70.0016  47.3783 0002775 272.5951 157.9989 14.98309181    11

AllMySatでSTARLINK-32407をリアルタイム追跡

Download on the App Store